Change the Weather History Date:

Sunday, October 13, 2013

  Actual Average Record
Temperature  
Mean Temperature 64 °F -  
Max Temperature 70 °F 61 °F 81 °F (1954)
Min Temperature 59 °F 40 °F 24 °F (1957)
Degree Days  
Heating Degree Days 1    
Growing Degree Days 14 (Base 50)    
Moisture  
Dew Point 57 °F    
Average Humidity 86    
Maximum Humidity 100    
Minimum Humidity 63    
Precipitation  
Precipitation 0.81 in - - ()
Sea Level Pressure  
Sea Level Pressure 30.26 in    
Wind  
Wind Speed 2 mph (North)    
Max Wind Speed 6 mph    
Max Gust Speed -    
Visibility 5 miles    
Events Rain    
Averages and records for this station are not official NWS values.
T = Trace of Precipitation, MM = Missing Value Source: NWS Daily Summary

Daily Weather History Graph

Daily Weather History Graph

Search for Another Location

Airport or City:

Trip Planner

Search our weather history database for the weather conditions in past years. The results will help you decide how hot, cold, wet, or windy it might be!

Date:

Astronomy

Oct. 13, 2013 Rise Set
Actual Time 7:30 AM EDT 6:42 PM EDT
Civil Twilight 7:03 AM EDT 7:10 PM EDT
Nautical Twilight 6:30 AM EDT 7:42 PM EDT
Astronomical Twilight 5:58 AM EDT 8:14 PM EDT
Moon 3:36 PM EDT (10/13) 1:34 AM EDT (10/13)
Length of Visible Light 12h 07m
Length of Day
11h 11m
Waxing Gibbous, 69% of the Moon is Illuminated
Oct 13
Waxing Gibbous
Oct 18
Full
Oct 26
Last Quarter
Nov 3
New
Nov 10
First Quarter

Hourly Weather History & Observations

Time (EDT) Temp. Dew Point Humidity Pressure Visibility Wind Dir Wind Speed Gust Speed Precip Events Conditions
12:53 AM 62.1 °F 52.0 °F 70% 30.17 in 10.0 mi Variable 3.5 mph - N/A   Overcast
1:53 AM 62.1 °F 50.0 °F 65% 30.17 in 10.0 mi Variable 4.6 mph - N/A   Overcast
2:53 AM 61.0 °F 50.0 °F 67% 30.17 in 10.0 mi Calm Calm - N/A   Overcast
3:53 AM 61.0 °F 51.1 °F 70% 30.18 in 10.0 mi Variable 3.5 mph - N/A   Mostly Cloudy
4:53 AM 60.1 °F 51.1 °F 72% 30.19 in 10.0 mi Calm Calm - N/A   Overcast
5:53 AM 60.1 °F 50.0 °F 69% 30.21 in 10.0 mi Calm Calm - N/A   Overcast
6:53 AM 60.1 °F 50.0 °F 69% 30.22 in 10.0 mi Variable 3.5 mph - N/A   Overcast
7:53 AM 59.0 °F 50.0 °F 72% 30.24 in 10.0 mi Variable 3.5 mph - N/A   Overcast
8:53 AM 59.0 °F 50.0 °F 72% 30.26 in 10.0 mi Calm Calm - N/A   Overcast
9:53 AM 60.1 °F 51.1 °F 72% 30.26 in 10.0 mi Calm Calm - N/A   Overcast
10:53 AM 63.0 °F 53.1 °F 70% 30.26 in 10.0 mi Calm Calm - N/A   Overcast
11:53 AM 64.0 °F 54.0 °F 70% 30.27 in 10.0 mi Variable 3.5 mph - N/A   Overcast
12:00 PM 64.4 °F 53.6 °F 68% 30.27 in 10.0 mi Calm Calm - N/A   Overcast
12:53 PM 69.1 °F 55.9 °F 63% 30.25 in 10.0 mi Variable 3.5 mph - N/A   Overcast
1:53 PM 69.1 °F 55.9 °F 63% 30.24 in 10.0 mi SSW 3.5 mph - N/A   Overcast
2:53 PM 64.9 °F 57.9 °F 78% 30.25 in 10.0 mi Calm Calm - 0.00 in Rain Light Rain
3:53 PM 64.9 °F 59.0 °F 81% 30.25 in 10.0 mi Calm Calm - 0.01 in   Overcast
4:33 PM 62.6 °F 59.0 °F 88% 30.26 in 1.5 mi Calm Calm - 0.03 in Rain Rain
4:38 PM 62.6 °F 59.0 °F 88% 30.26 in 1.0 mi SSW 3.5 mph - 0.07 in Rain Heavy Rain
4:53 PM 61.0 °F 59.0 °F 93% 30.26 in 1.5 mi SSW 4.6 mph - 0.14 in Rain Rain
5:19 PM 60.8 °F 60.8 °F 100% 30.27 in 2.5 mi Calm Calm - 0.05 in Rain Light Rain
5:38 PM 60.8 °F 60.8 °F 100% 30.27 in 1.2 mi Calm Calm - 0.07 in Rain Light Rain
5:53 PM 61.0 °F 59.0 °F 93% 30.26 in 1.2 mi Calm Calm - 0.12 in Rain Rain
6:17 PM 60.8 °F 59.0 °F 94% 30.27 in 1.2 mi Calm Calm - 0.09 in Rain Heavy Rain
6:34 PM 60.8 °F 59.0 °F 94% 30.27 in 3.0 mi Calm Calm - 0.12 in Rain Light Rain
6:43 PM 60.8 °F 59.0 °F 94% 30.27 in 3.0 mi Calm Calm - 0.14 in Rain Rain
6:51 PM 60.8 °F 59.0 °F 94% 30.27 in 1.8 mi Calm Calm - 0.19 in Rain Heavy Rain
6:53 PM 61.0 °F 59.0 °F 93% 30.27 in 1.5 mi Calm Calm - 0.22 in Rain Heavy Rain
7:09 PM 60.8 °F 60.8 °F 100% 30.28 in 2.0 mi Calm Calm - 0.08 in Rain Heavy Rain
7:19 PM 60.8 °F 59.0 °F 94% 30.28 in 2.0 mi Calm Calm - 0.12 in Rain Rain
7:30 PM 60.8 °F 59.0 °F 94% 30.28 in 2.0 mi Calm Calm - 0.17 in Rain Heavy Rain
7:33 PM 60.8 °F 60.8 °F 100% 30.28 in 1.8 mi Calm Calm - 0.19 in Rain Heavy Rain
7:40 PM 60.8 °F 59.0 °F 94% 30.28 in 2.0 mi Calm Calm - 0.21 in Rain Rain
7:46 PM 60.8 °F 59.0 °F 94% 30.28 in 3.0 mi Calm Calm - 0.21 in Rain Light Rain
7:53 PM 61.0 °F 59.0 °F 93% 30.28 in 3.0 mi Calm Calm - 0.22 in Rain Light Rain
8:10 PM 60.8 °F 59.0 °F 94% 30.29 in 3.0 mi Calm Calm - 0.01 in Rain Light Rain
8:16 PM 60.8 °F 59.0 °F 94% 30.29 in 2.5 mi Calm Calm - 0.01 in Rain Light Rain
8:25 PM 60.8 °F 59.0 °F 94% 30.29 in 1.8 mi Calm Calm - 0.01 in Rain Light Rain
8:42 PM 60.8 °F 59.0 °F 94% 30.29 in 3.0 mi North 3.5 mph - 0.03 in Rain Light Rain
8:49 PM 60.8 °F 59.0 °F 94% 30.29 in 5.0 mi Calm Calm - 0.03 in Rain Light Rain
8:53 PM 60.1 °F 59.0 °F 96% 30.29 in 4.0 mi NNE 3.5 mph - 0.03 in Rain Light Rain
9:00 PM 60.8 °F 59.0 °F 94% 30.29 in 3.0 mi NNE 3.5 mph - 0.01 in Rain Light Rain
9:44 PM 60.8 °F 57.2 °F 88% 30.29 in 4.0 mi Calm Calm - 0.02 in Rain Light Rain
9:53 PM 60.1 °F 57.9 °F 93% 30.29 in 4.0 mi Calm Calm - 0.02 in Rain Light Rain
10:16 PM 59.0 °F 57.2 °F 94% 30.30 in 3.0 mi North 3.5 mph - 0.01 in Rain Light Rain
10:27 PM 59.0 °F 57.2 °F 94% 30.30 in 2.0 mi North 3.5 mph - 0.03 in Rain Light Rain
10:37 PM 59.0 °F 57.2 °F 94% 30.30 in 1.8 mi Calm Calm - 0.04 in Rain Light Rain
10:42 PM 59.0 °F 57.2 °F 94% 30.30 in 2.0 mi North 3.5 mph - 0.04 in Rain Light Rain
10:53 PM 59.0 °F 57.9 °F 96% 30.29 in 3.0 mi North 3.5 mph - 0.05 in Rain Light Rain
11:15 PM 59.0 °F 57.2 °F 94% 30.30 in 3.0 mi NNW 4.6 mph - 0.00 in Rain Light Rain
11:29 PM 59.0 °F 57.2 °F 94% 30.29 in 4.0 mi North 5.8 mph - 0.00 in   Overcast
11:53 PM 59.0 °F 57.0 °F 93% 30.29 in 4.0 mi North 5.8 mph - 0.00 in   Overcast